sat.trackr.live / text

‹ back to catalog

STARLINK-34087

NORAD 64023 · 2025-102B

PAYLOAD ACTIVE UNKNOWN

§ Identity

Operator
Country
US
Launch date
2025-05-16
Launch site
AFWTR
Launch vehicle
Mass (kg)
RCS (m²)

Purposes: comms

External: N2YO · Heavens-Above · Gunter

§ Orbital elements

Epoch: 2026-05-24T19:44:16.770048Z

Period
96.11 min
Inclination
70.0008°
Eccentricity
0.0002671
Mean motion
14.98338879 rev/d
Perigee alt
570.2 km
Apogee alt
573.9 km
Semi-major
6,950.2 km
B*
2.6725e-4
RAAN
282.5957°
Arg perigee
271.6037°
Mean anomaly
88.4816°
Rev number
5,736

§ Raw data

STARLINK-340871 64023U 25102B   26144.82241632  .00003098  00000+0  26725-3 0  99942 64023  70.0008 282.5957 0002671 271.6037  88.4816 14.98338879 57368

JSON: /api/v1/satellites/64023 · /tle

For live sub-satellite position, see the globe view (requires WebGL).

§ Visibility from observer

Set your observer location to see the next 7 days of passes ≥ 10°. The values pass through the URL so the page stays shareable.

No JS? Fill the form by hand. The geolocation button needs JavaScript.